Tracking 18843 objects as of 20-November-2017
HD Live streaming from Space Station
objects crossing your sky now

FENGYUN 1C DEB

Track FENGYUN 1C DEB now!
10-day predictions


NORAD ID: 36680
Int'l Code: 1999-025DZA
Perigee: 709.6 km
Apogee: 1,002.0 km
Inclination: 98.8 °
Period: 101.9 minutes
Semi major axis: 7226 km
RCS: 0.0016 m2 (small)
Launch date: May 10, 1999
Source: People's Republic of China (PRC)
Launch site: Taiyaun Space Center, China (TSC)

Note: This is SATELLITE DEBRIS
aabbcc
Your satellite tracking list
Your tracking list is empty




NASA's NSSDC Master Catalog

Two Line Element Set (TLE):
1 36680U 99025DZA 17322.97703883  .00000231  00000-0  12085-3 0  9993
2 36680  98.7728  14.9466 0202339  50.6061  69.3872 14.13138666423646
Source of the keplerian elements: AFSPC